When you browse on this site, cookies collect data to enhance your experience and personalize the content and advertising you see.
Visit our Privacy Policy to learn more. By continuing to use the site, you agree to this use of cookies and data.

Meteo pe oră la Hrodna

Astăzi, 9 Iulie, Joi

Timp Temperatura Precipitaţii Vânt Presiune Umiditate
00:00 +10°C° 0 mm 2 m/s 750 mmHg 93%
01:00 +9°C° 0 mm 2 m/s 750 mmHg 94%
02:00 +9°C° 0 mm 2 m/s 751 mmHg 95%
03:00 +9°C° 0 mm 2 m/s 751 mmHg 95%
04:00 +9°C° 0 mm 2 m/s 751 mmHg 95%
05:00 +8°C° 0 mm 2 m/s 751 mmHg 95%
06:00 +10°C° 0 mm 2 m/s 751 mmHg 90%
07:00 +12°C° 0 mm 3 m/s 751 mmHg 84%
08:00 +14°C° 0 mm 3 m/s 751 mmHg 79%
09:00 +16°C° 0 mm 3 m/s 751 mmHg 72%
10:00 +17°C° 0 mm 4 m/s 752 mmHg 66%
11:00 +18°C° 0 mm 4 m/s 752 mmHg 59%
12:00 +19°C° 0 mm 4 m/s 752 mmHg 58%
13:00 +19°C° 0 mm 4 m/s 752 mmHg 57%
14:00 +20°C° 0 mm 4 m/s 752 mmHg 56%
15:00 +20°C° 0.2 mm 4 m/s 752 mmHg 60%
16:00 +19°C° 0.2 mm 3 m/s 751 mmHg 65%
17:00 +19°C° 0.2 mm 3 m/s 751 mmHg 70%
18:00 +18°C° 0.1 mm 2 m/s 751 mmHg 74%
19:00 +17°C° 0.1 mm 2 m/s 751 mmHg 78%
20:00 +16°C° 0.1 mm 1 m/s 750 mmHg 82%
21:00 +16°C° 0 mm 2 m/s 750 mmHg 84%
22:00 +15°C° 0 mm 2 m/s 750 mmHg 86%
23:00 +13°C° 0 mm 3 m/s 750 mmHg 88%

Mâine, 10 Iulie, Vineri

Timp Temperatura Precipitaţii Vânt Presiune Umiditate
00:00 +13°C° 0.2 mm 3 m/s 750 mmHg 88%
01:00 +14°C° 0.2 mm 4 m/s 749 mmHg 89%
02:00 +14°C° 0.2 mm 5 m/s 749 mmHg 89%
03:00 +14°C° 0.5 mm 5 m/s 748 mmHg 90%
04:00 +14°C° 0.5 mm 5 m/s 748 mmHg 91%
05:00 +15°C° 0.5 mm 6 m/s 747 mmHg 92%
06:00 +16°C° 0.3 mm 6 m/s 747 mmHg 92%
07:00 +16°C° 0.3 mm 6 m/s 747 mmHg 91%
08:00 +17°C° 0.3 mm 6 m/s 747 mmHg 91%
09:00 +19°C° 0.2 mm 6 m/s 747 mmHg 89%
10:00 +20°C° 0.2 mm 6 m/s 747 mmHg 87%
11:00 +20°C° 0.2 mm 6 m/s 747 mmHg 84%
12:00 +21°C° 0.4 mm 6 m/s 747 mmHg 82%
13:00 +22°C° 0.4 mm 6 m/s 748 mmHg 79%
14:00 +23°C° 0.4 mm 6 m/s 748 mmHg 76%
15:00 +23°C° 0.4 mm 5 m/s 748 mmHg 75%
16:00 +23°C° 0.4 mm 5 m/s 748 mmHg 74%
17:00 +25°C° 0.4 mm 4 m/s 748 mmHg 73%
18:00 +24°C° 0.5 mm 3 m/s 748 mmHg 78%
19:00 +22°C° 0.5 mm 3 m/s 747 mmHg 83%
20:00 +21°C° 0.5 mm 2 m/s 747 mmHg 88%
21:00 +20°C° 0.4 mm 2 m/s 747 mmHg 90%
22:00 +19°C° 0.4 mm 2 m/s 747 mmHg 91%
23:00 +19°C° 0.4 mm 2 m/s 747 mmHg 93%

Poimâine, 11 Iulie, Sâmbătă

Timp Temperatura Precipitaţii Vânt Presiune Umiditate
00:00 +19°C° 0.5 mm 3 m/s 747 mmHg 94%
01:00 +19°C° 0.5 mm 3 m/s 747 mmHg 95%
02:00 +19°C° 0.5 mm 3 m/s 747 mmHg 96%
03:00 +19°C° 0.3 mm 3 m/s 747 mmHg 96%
04:00 +19°C° 0.3 mm 3 m/s 748 mmHg 96%
05:00 +19°C° 0.3 mm 3 m/s 748 mmHg 96%
06:00 +19°C° 0.7 mm 3 m/s 749 mmHg 95%
07:00 +19°C° 0.7 mm 3 m/s 749 mmHg 94%
08:00 +18°C° 0.7 mm 3 m/s 750 mmHg 93%
09:00 +19°C° 0 mm 3 m/s 750 mmHg 90%
10:00 +19°C° 0 mm 4 m/s 751 mmHg 86%
11:00 +19°C° 0 mm 4 m/s 751 mmHg 83%
12:00 +18°C° 0 mm 4 m/s 752 mmHg 83%
13:00 +18°C° 0 mm 4 m/s 752 mmHg 83%
14:00 +18°C° 0 mm 3 m/s 752 mmHg 83%
15:00 +17°C° 0.1 mm 3 m/s 752 mmHg 85%
16:00 +17°C° 0.1 mm 3 m/s 753 mmHg 88%
17:00 +16°C° 0.1 mm 2 m/s 753 mmHg 91%
18:00 +16°C° 0.2 mm 2 m/s 753 mmHg 91%
19:00 +16°C° 0.2 mm 2 m/s 753 mmHg 91%
20:00 +15°C° 0.2 mm 2 m/s 754 mmHg 92%
21:00 +15°C° 0 mm 2 m/s 754 mmHg 91%
22:00 +14°C° 0 mm 2 m/s 754 mmHg 91%
23:00 +14°C° 0 mm 2 m/s 754 mmHg 90%

12 Iulie, Duminică

Timp Temperatura Precipitaţii Vânt Presiune Umiditate
00:00 +13°C° 0 mm 2 m/s 755 mmHg 90%
01:00 +13°C° 0 mm 1 m/s 755 mmHg 90%
02:00 +13°C° 0 mm 1 m/s 755 mmHg 89%
03:00 +13°C° 0.3 mm 1 m/s 755 mmHg 90%
04:00 +13°C° 0.3 mm 1 m/s 755 mmHg 91%
05:00 +12°C° 0.3 mm 1 m/s 755 mmHg 92%
06:00 +13°C° 0.1 mm 1 m/s 755 mmHg 89%
07:00 +14°C° 0.1 mm 1 m/s 755 mmHg 86%
08:00 +14°C° 0.1 mm 1 m/s 755 mmHg 83%
09:00 +15°C° 0 mm 1 m/s 755 mmHg 77%
10:00 +16°C° 0 mm 1 m/s 755 mmHg 71%
11:00 +18°C° 0 mm 2 m/s 755 mmHg 64%
12:00 +18°C° 0 mm 2 m/s 755 mmHg 63%
13:00 +18°C° 0 mm 2 m/s 755 mmHg 62%
14:00 +19°C° 0 mm 2 m/s 755 mmHg 61%
15:00 +19°C° 0.1 mm 2 m/s 754 mmHg 64%
16:00 +19°C° 0.1 mm 3 m/s 754 mmHg 67%
17:00 +19°C° 0.1 mm 3 m/s 754 mmHg 70%
18:00 +18°C° 0.1 mm 3 m/s 754 mmHg 75%
19:00 +17°C° 0.1 mm 3 m/s 754 mmHg 80%
20:00 +14°C° 0.1 mm 3 m/s 754 mmHg 85%
21:00 +14°C° 0 mm 3 m/s 754 mmHg 86%
22:00 +13°C° 0 mm 3 m/s 754 mmHg 87%
23:00 +12°C° 0 mm 3 m/s 754 mmHg 88%

13 Iulie, Luni

Timp Temperatura Precipitaţii Vânt Presiune Umiditate
00:00 +12°C° 0 mm 3 m/s 754 mmHg 89%
01:00 +11°C° 0 mm 3 m/s 754 mmHg 90%
02:00 +12°C° 0 mm 2 m/s 754 mmHg 91%
03:00 +10°C° 0 mm 2 m/s 754 mmHg 91%
04:00 +10°C° 0 mm 2 m/s 753 mmHg 92%
05:00 +10°C° 0 mm 2 m/s 753 mmHg 92%
06:00 +12°C° 0 mm 2 m/s 753 mmHg 88%
07:00 +13°C° 0 mm 2 m/s 753 mmHg 83%
08:00 +13°C° 0 mm 3 m/s 753 mmHg 78%
09:00 +15°C° 0 mm 2 m/s 753 mmHg 74%
10:00 +16°C° 0 mm 2 m/s 752 mmHg 70%
11:00 +17°C° 0 mm 2 m/s 752 mmHg 66%
12:00 +18°C° 0 mm 2 m/s 752 mmHg 64%
13:00 +19°C° 0 mm 1 m/s 751 mmHg 62%
14:00 +20°C° 0 mm 1 m/s 751 mmHg 60%
15:00 +19°C° 0.1 mm 2 m/s 751 mmHg 61%
16:00 +19°C° 0.1 mm 2 m/s 751 mmHg 62%
17:00 +19°C° 0.1 mm 2 m/s 750 mmHg 63%
18:00 +18°C° 0 mm 2 m/s 750 mmHg 67%
19:00 +17°C° 0 mm 2 m/s 750 mmHg 72%
20:00 +15°C° 0 mm 2 m/s 751 mmHg 77%
21:00 +15°C° 0 mm 2 m/s 751 mmHg 80%
22:00 +14°C° 0 mm 2 m/s 751 mmHg 83%
23:00 +13°C° 0 mm 2 m/s 751 mmHg 86%

14 Iulie, Marţi

Timp Temperatura Precipitaţii Vânt Presiune Umiditate
00:00 +13°C° 0.1 mm 2 m/s 750 mmHg 88%
01:00 +13°C° 0.1 mm 3 m/s 750 mmHg 89%
02:00 +13°C° 0.1 mm 3 m/s 750 mmHg 91%
03:00 +13°C° 0 mm 3 m/s 750 mmHg 91%
04:00 +13°C° 0 mm 4 m/s 750 mmHg 91%
05:00 +12°C° 0 mm 4 m/s 749 mmHg 92%
06:00 +13°C° 0.1 mm 4 m/s 749 mmHg 91%
07:00 +13°C° 0.1 mm 4 m/s 749 mmHg 90%
08:00 +13°C° 0.1 mm 5 m/s 749 mmHg 89%
09:00 +13°C° 0.1 mm 5 m/s 749 mmHg 89%
10:00 +13°C° 0.1 mm 5 m/s 749 mmHg 89%
11:00 +14°C° 0.1 mm 5 m/s 749 mmHg 89%
12:00 +14°C° 0.1 mm 5 m/s 749 mmHg 88%
13:00 +14°C° 0.1 mm 5 m/s 749 mmHg 86%
14:00 +15°C° 0.1 mm 5 m/s 749 mmHg 84%
15:00 +16°C° 0 mm 5 m/s 748 mmHg 81%
16:00 +16°C° 0 mm 5 m/s 748 mmHg 78%
17:00 +17°C° 0 mm 5 m/s 748 mmHg 75%
18:00 +17°C° 0 mm 5 m/s 748 mmHg 76%
19:00 +17°C° 0 mm 5 m/s 748 mmHg 77%
20:00 +17°C° 0 mm 5 m/s 748 mmHg 78%
21:00 +16°C° 0 mm 5 m/s 748 mmHg 80%
22:00 +15°C° 0 mm 5 m/s 748 mmHg 81%
23:00 +14°C° 0 mm 5 m/s 748 mmHg 82%
Arată mai mult